• In Czech Republic
  • List of Countries
  • For 7 days
  • Water Temperature
  • Satellite Maps
  • Weather Map
  • Weather Widgets
  • user-avatar
    Login

    Hourly Weather San Juan

    Today, 17 October, Wednesday

    Time Temperature Precipitation Wind Pressure Humidity
    00:00 +23°C° 0 mm 5 mps 701 mmHg 12%
    01:00 +23°C° 0 mm 5 mps 700 mmHg 12%
    02:00 +22°C° 0 mm 5 mps 700 mmHg 13%
    03:00 +22°C° 0 mm 5 mps 701 mmHg 13%
    04:00 +21°C° 0 mm 5 mps 701 mmHg 13%
    05:00 +22°C° 0 mm 5 mps 701 mmHg 12%
    06:00 +23°C° 0 mm 6 mps 702 mmHg 11%
    07:00 +26°C° 0 mm 7 mps 702 mmHg 10%
    08:00 +27°C° 0 mm 7 mps 702 mmHg 9%
    09:00 +29°C° 0 mm 7 mps 703 mmHg 7%
    10:00 +31°C° 0 mm 8 mps 703 mmHg 6%
    11:00 +32°C° 0 mm 8 mps 702 mmHg 6%
    12:00 +33°C° 0 mm 9 mps 702 mmHg 5%
    13:00 +34°C° 0 mm 10 mps 701 mmHg 5%
    14:00 +33°C° 0 mm 9 mps 701 mmHg 5%
    15:00 +33°C° 0 mm 8 mps 701 mmHg 4%
    16:00 +33°C° 0 mm 8 mps 700 mmHg 4%
    17:00 +30°C° 0 mm 7 mps 701 mmHg 5%
    18:00 +28°C° 0 mm 5 mps 701 mmHg 6%
    19:00 +26°C° 0 mm 4 mps 702 mmHg 7%
    20:00 +25°C° 0 mm 4 mps 702 mmHg 8%
    21:00 +25°C° 0 mm 3 mps 703 mmHg 9%
    22:00 +24°C° 0 mm 3 mps 704 mmHg 10%
    23:00 +22°C° 0 mm 3 mps 704 mmHg 10%

    Tomorrow, 18 October, Thursday

    Time Temperature Precipitation Wind Pressure Humidity
    00:00 +22°C° 0 mm 3 mps 704 mmHg 11%
    01:00 +21°C° 0 mm 2 mps 704 mmHg 12%
    02:00 +20°C° 0 mm 3 mps 704 mmHg 13%
    03:00 +20°C° 0 mm 4 mps 704 mmHg 15%
    04:00 +20°C° 0 mm 5 mps 705 mmHg 17%
    05:00 +20°C° 0 mm 6 mps 705 mmHg 26%
    06:00 +20°C° 0 mm 6 mps 706 mmHg 35%
    07:00 +21°C° 0 mm 7 mps 706 mmHg 45%
    08:00 +22°C° 0 mm 7 mps 706 mmHg 42%
    09:00 +23°C° 0 mm 6 mps 706 mmHg 40%
    10:00 +26°C° 0 mm 6 mps 706 mmHg 37%
    11:00 +27°C° 0 mm 6 mps 706 mmHg 34%
    12:00 +28°C° 0 mm 5 mps 706 mmHg 30%
    13:00 +29°C° 0 mm 5 mps 705 mmHg 27%
    14:00 +29°C° 0 mm 5 mps 705 mmHg 27%
    15:00 +29°C° 0 mm 5 mps 705 mmHg 27%
    16:00 +29°C° 0 mm 5 mps 705 mmHg 27%
    17:00 +28°C° 0 mm 5 mps 705 mmHg 32%
    18:00 +27°C° 0 mm 5 mps 706 mmHg 36%
    19:00 +26°C° 0 mm 5 mps 707 mmHg 41%
    20:00 +25°C° 0 mm 5 mps 707 mmHg 45%
    21:00 +23°C° 0 mm 5 mps 708 mmHg 49%
    22:00 +23°C° 0 mm 5 mps 708 mmHg 53%
    23:00 +22°C° 0 mm 4 mps 708 mmHg 56%

    Day after tomorrow, 19 October, Friday

    Time Temperature Precipitation Wind Pressure Humidity
    00:00 +22°C° 0 mm 4 mps 707 mmHg 60%
    01:00 +21°C° 0 mm 3 mps 707 mmHg 63%
    02:00 +20°C° 0 mm 3 mps 707 mmHg 66%
    03:00 +20°C° 0 mm 3 mps 706 mmHg 69%
    04:00 +19°C° 0 mm 2 mps 706 mmHg 73%
    05:00 +20°C° 0 mm 2 mps 706 mmHg 70%
    06:00 +20°C° 0 mm 2 mps 707 mmHg 66%
    07:00 +21°C° 0 mm 2 mps 707 mmHg 63%
    08:00 +24°C° 0 mm 2 mps 706 mmHg 56%
    09:00 +26°C° 0 mm 3 mps 706 mmHg 50%
    10:00 +27°C° 0 mm 3 mps 706 mmHg 43%
    11:00 +29°C° 0 mm 3 mps 705 mmHg 38%
    12:00 +30°C° 0 mm 4 mps 705 mmHg 33%
    13:00 +33°C° 0 mm 4 mps 704 mmHg 28%
    14:00 +33°C° 0.1 mm 4 mps 704 mmHg 29%
    15:00 +33°C° 0.1 mm 4 mps 703 mmHg 31%
    16:00 +33°C° 0.1 mm 4 mps 703 mmHg 32%
    17:00 +32°C° 0.7 mm 4 mps 703 mmHg 39%
    18:00 +29°C° 0.7 mm 4 mps 704 mmHg 45%
    19:00 +28°C° 0.7 mm 3 mps 704 mmHg 52%
    20:00 +27°C° 0.6 mm 3 mps 704 mmHg 56%
    21:00 +27°C° 0.6 mm 3 mps 704 mmHg 61%
    22:00 +26°C° 0.6 mm 2 mps 704 mmHg 65%
    23:00 +26°C° 0.3 mm 3 mps 704 mmHg 67%

    20 October, Saturday

    Time Temperature Precipitation Wind Pressure Humidity
    00:00 +25°C° 0.3 mm 3 mps 704 mmHg 70%
    01:00 +24°C° 0.3 mm 3 mps 703 mmHg 72%
    02:00 +24°C° 0.1 mm 3 mps 703 mmHg 73%
    03:00 +22°C° 0.1 mm 3 mps 703 mmHg 75%
    04:00 +22°C° 0.1 mm 3 mps 703 mmHg 77%
    05:00 +22°C° 0 mm 3 mps 703 mmHg 73%
    06:00 +24°C° 0 mm 2 mps 703 mmHg 69%
    07:00 +24°C° 0 mm 2 mps 704 mmHg 65%
    08:00 +26°C° 0 mm 2 mps 704 mmHg 59%
    09:00 +27°C° 0 mm 2 mps 704 mmHg 53%
    10:00 +28°C° 0 mm 2 mps 703 mmHg 47%
    11:00 +29°C° 0 mm 3 mps 703 mmHg 42%
    12:00 +31°C° 0 mm 3 mps 702 mmHg 37%
    13:00 +33°C° 0 mm 4 mps 702 mmHg 32%
    14:00 +33°C° 0 mm 4 mps 702 mmHg 30%
    15:00 +33°C° 0 mm 4 mps 702 mmHg 29%
    16:00 +33°C° 0 mm 4 mps 701 mmHg 28%
    17:00 +31°C° 0.2 mm 3 mps 702 mmHg 32%
    18:00 +30°C° 0.2 mm 2 mps 703 mmHg 37%
    19:00 +28°C° 0.2 mm 1 mps 703 mmHg 41%
    20:00 +28°C° 0 mm 1 mps 704 mmHg 44%
    21:00 +27°C° 0 mm 1 mps 704 mmHg 46%
    22:00 +26°C° 0 mm 2 mps 704 mmHg 49%
    23:00 +26°C° 0 mm 2 mps 704 mmHg 49%

    21 October, Sunday

    Time Temperature Precipitation Wind Pressure Humidity
    00:00 +25°C° 0 mm 2 mps 703 mmHg 49%
    01:00 +24°C° 0 mm 2 mps 703 mmHg 49%
    02:00 +24°C° 0 mm 2 mps 703 mmHg 50%
    03:00 +23°C° 0 mm 2 mps 703 mmHg 50%
    04:00 +23°C° 0 mm 2 mps 703 mmHg 50%
    05:00 +22°C° 0 mm 3 mps 704 mmHg 54%
    06:00 +23°C° 0 mm 5 mps 704 mmHg 57%
    07:00 +23°C° 0 mm 6 mps 705 mmHg 61%
    08:00 +24°C° 0 mm 6 mps 705 mmHg 60%
    09:00 +24°C° 0 mm 6 mps 704 mmHg 59%
    10:00 +24°C° 0 mm 6 mps 704 mmHg 59%
    11:00 +26°C° 0 mm 6 mps 704 mmHg 56%
    12:00 +27°C° 0 mm 5 mps 703 mmHg 53%
    13:00 +28°C° 0 mm 5 mps 702 mmHg 50%
    14:00 +28°C° 0 mm 5 mps 702 mmHg 49%
    15:00 +28°C° 0 mm 5 mps 702 mmHg 48%
    16:00 +28°C° 0 mm 5 mps 702 mmHg 47%
    17:00 +27°C° 0.1 mm 4 mps 702 mmHg 53%
    18:00 +26°C° 0.1 mm 4 mps 703 mmHg 58%
    19:00 +25°C° 0.1 mm 4 mps 703 mmHg 64%
    20:00 +23°C° 0.2 mm 4 mps 704 mmHg 66%
    21:00 +24°C° 0.2 mm 3 mps 704 mmHg 68%
    22:00 +22°C° 0.2 mm 3 mps 704 mmHg 71%
    23:00 +22°C° 0 mm 4 mps 704 mmHg 73%

    22 October, Monday

    Time Temperature Precipitation Wind Pressure Humidity
    00:00 +21°C° 0 mm 4 mps 704 mmHg 75%
    01:00 +21°C° 0 mm 4 mps 703 mmHg 77%
    02:00 +21°C° 0 mm 4 mps 704 mmHg 78%
    03:00 +20°C° 0 mm 5 mps 704 mmHg 80%
    04:00 +20°C° 0 mm 5 mps 704 mmHg 82%
    05:00 +20°C° 0.1 mm 5 mps 704 mmHg 81%
    06:00 +20°C° 0.1 mm 5 mps 704 mmHg 80%
    07:00 +20°C° 0.1 mm 5 mps 705 mmHg 79%
    08:00 +21°C° 0 mm 5 mps 704 mmHg 75%
    09:00 +21°C° 0 mm 5 mps 704 mmHg 71%
    10:00 +22°C° 0 mm 5 mps 704 mmHg 67%
    11:00 +23°C° 0 mm 5 mps 703 mmHg 63%
    12:00 +25°C° 0 mm 5 mps 703 mmHg 60%
    13:00 +24°C° 0 mm 6 mps 703 mmHg 57%
    14:00 +24°C° 0 mm 6 mps 703 mmHg 58%
    15:00 +24°C° 0 mm 6 mps 703 mmHg 60%
    16:00 +23°C° 0 mm 7 mps 703 mmHg 61%
    17:00 +22°C° 0 mm 6 mps 703 mmHg 64%
    18:00 +21°C° 0 mm 6 mps 704 mmHg 68%
    19:00 +20°C° 0 mm 5 mps 705 mmHg 71%
    20:00 +19°C° 0 mm 5 mps 705 mmHg 73%
    21:00 +19°C° 0 mm 5 mps 705 mmHg 74%
    22:00 +17°C° 0 mm 5 mps 706 mmHg 75%
    23:00 +17°C° 0 mm 5 mps 706 mmHg 76%
    Show more